#timestamp,LO_Frequency,Hit,StdDev 
1572105615.3,286047000.8,N
1572105635.1,286047000.4,N
1572105655.8,286047000.5,N
1572105675.7,286047002.3,N
1572105695.5,286047000.0,N
1572105715.4,286047001.8,N
1572105735.2,286047002.7,N
1572105755.0,286047000.6,N
1572105755.9,286047000.6,N
1572105775.8,286046999.3,N
1572105795.6,286046998.6,N
1572105815.5,286047000.2,N
1572105835.3,286046999.8,N
1572105855.1,286046999.8,N
1572105875.9,286047002.4,N
1572105895.7,286047002.0,N
1572105915.5,286047001.0,N
1572105935.4,286047000.6,N
1572105955.2,286047001.2,N
1572105975.1,286047000.7,N
1572105976.0,286047000.7,N
1572105995.8,286046998.7,N
1572106015.6,286046999.0,N
1572106035.5,286046998.3,N
1572106055.3,286046998.3,N
1572106075.1,286047001.2,N
1572106095.9,286046998.1,N
1572106115.7,286046998.3,N
1572106135.6,286046997.0,N
1572106155.4,286046999.6,N
1572106175.2,286046999.3,N
1572106195.1,286046996.5,N
1572106196.0,286046996.5,N
1572106215.8,286046996.7,N
1572106235.6,286046996.9,N
1572106255.5,286046996.6,N
1572106275.3,286046996.6,N
1572106295.2,286046999.3,N
1572106315.9,286046998.8,N
1572106335.7,286046999.4,N
1572106355.6,286046998.4,N
1572106375.4,286047002.4,N
1572106395.2,286047002.0,N
1572106415.1,286047002.6,N
1572106416.0,286047002.6,N
1572106435.8,286047000.2,N
1572106455.7,286047002.7,N
1572106475.5,286047002.2,N
1572106495.3,286047000.0,N
1572106515.2,286047000.1,N
1572106535.0,286047000.0,N
1572106535.9,286047000.0,N
1572106555.7,286047001.0,N
1572106575.6,286047002.7,N
1572106595.4,286046999.9,N
1572106615.3,286047000.2,N
1572106635.1,286047002.5,N
1572106636.0,286047002.5,N
1572106655.8,286047000.6,N
1572106675.7,286046998.8,N
1572106695.5,286046996.9,N
1572106715.3,286046998.9,N
1572106735.2,286046998.4,N
1572106755.0,286046998.3,N
1572106755.9,286046998.3,N
1572106775.8,286047000.8,N
1572106795.6,286047000.9,N
1572106815.4,286046999.3,N
1572106835.3,286047000.6,N
1572106855.1,286046998.4,N
1572106875.8,286046998.1,N
1572106895.7,286046998.5,N
1572106915.5,286047000.8,N
1572106935.4,286047002.4,N
1572106955.2,286047002.3,N
1572106975.0,286047002.6,N
1572106975.9,286047002.6,N
1572106995.8,286047001.8,N
1572107015.6,286046999.8,N
1572107035.4,286047001.9,N
1572107055.3,286046999.7,N
1572107075.1,286047002.5,N
1572107095.9,286046999.8,N
1572107115.7,286047001.2,N
1572107135.5,286047001.0,N
1572107155.4,286046998.5,N
1572107175.2,286046998.4,N
1572107195.0,286047000.7,N
1572107195.9,286047000.7,N
1572107215.8,286047001.2,N
1572107235.6,286046998.2,N
1572107255.5,286046998.9,N
1572107275.3,286046998.3,N
1572107295.1,286046998.8,N
1572107315.9,286046998.5,N
1572107335.7,286046999.3,N
1572107355.5,286046999.3,N
1572107375.4,286046998.8,N
1572107395.2,286046998.6,N
1572107415.0,286047000.7,N
1572107416.0,286047000.7,N
1572107435.8,286046998.7,N
1572107455.6,286046999.0,N
1572107475.5,286046999.5,N
1572107495.3,286046998.6,N
1572107515.1,286047000.8,N
1572107535.9,286047001.5,N
1572107555.7,286047004.0,Y
1572107575.6,286047001.8,P
1572107595.4,286047001.8,N
1572107615.2,286047011.9,P
1572107635.1,286047001.5,N
1572107636.0,286047001.5,N
1572107655.8,286047002.1,N
1572107675.6,286047004.2,N
1572107695.5,286047003.0,N
1572107715.3,286047003.4,N
1572107735.2,286047004.2,N
1572107755.9,286047003.9,N
1572107775.7,286047003.4,N
1572107795.6,286047005.2,N
1572107815.4,286047005.1,N
1572107835.2,286047005.4,N
1572107855.1,286047006.0,N
1572107856.0,286047006.0,N
1572107875.8,286047005.0,N
1572107895.7,286047005.9,N
1572107915.5,286047005.7,N
1572107935.3,286047005.5,N
1572107955.2,286047005.1,N
1572107975.0,286047005.3,N
1572107975.9,286047005.3,N
1572107995.8,286047007.1,Y
1572108015.6,286047003.6,P
1572108035.4,286047006.0,P
1572108055.3,286047003.4,P
1572108075.1,286047003.3,Y
1572108095.8,286047001.0,P
1572108115.7,286047002.8,N
1572108135.5,286046998.5,N
1572108155.4,286047000.7,N
1572108175.2,286046998.4,N
1572108195.0,286046998.8,N
1572108195.9,286046998.8,N
1572108215.8,286046998.3,N
1572108235.6,286047001.0,N
1572108255.4,286047000.1,N
1572108275.3,286046999.9,N
1572108295.1,286047000.1,N
1572108315.9,286046999.8,N
1572108335.7,286046998.3,N
1572108355.5,286046998.6,N
1572108375.4,286046998.6,N
1572108395.2,286047000.9,N
1572108415.0,286046999.7,N
1572108415.9,286046999.7,N
1572108435.8,286047000.2,N
1572108455.6,286047000.5,N
1572108475.5,286047002.8,N
1572108495.3,286047002.0,N
1572108515.1,286047002.3,N
1572108535.9,286047000.3,N
1572108555.7,286047000.5,N
1572108575.5,286047000.4,N
1572108595.4,286047001.1,N
1572108615.2,286046998.8,N
1572108635.1,286046998.9,N
1572108636.0,286046998.9,N
1572108655.8,286047000.4,N
1572108675.6,286047000.3,N
1572108695.5,286047002.8,N
1572108715.3,286047000.1,N
1572108735.1,286047000.5,N
1572108755.9,286047002.0,N
1572108775.7,286047000.1,N
1572108795.6,286047001.1,N
1572108815.4,286047002.5,N
1572108835.2,286047000.2,N
1572108855.1,286047002.7,N
1572108856.0,286047002.7,N
1572108875.8,286047002.7,N
1572108895.6,286047000.2,N
1572108915.5,286047000.4,N
1572108935.3,286046999.7,N
1572108955.2,286047000.1,N
1572108975.9,286046998.4,N
1572108995.7,286047001.2,N
1572109015.6,286047001.2,N
1572109035.4,286046998.3,N
1572109055.2,286046998.2,N
1572109075.1,286046999.1,N
1572109076.0,286046999.1,N
1572109095.8,286046998.7,N
1572109115.7,286046999.6,N
1572109135.5,286046997.8,N
1572109155.3,286046996.8,N
1572109175.2,286046996.6,N
1572109195.0,286046999.9,N
1572109195.9,286046999.9,N
